Regional Weather Roundup
Issued by NWS

Home | Current Version | Previous Version | Graphics & Text | Print | Product List | Glossary On
Versions: 1 2 3 4 5 6 7 8 9 10 11 12 13 14 15 16 17 18 19 20 21 22 23 24 25 26 27 28 29 30 31 32 33 34 35 36 37 38 39 40 41 42 43 44 45 46 47 48 49 50
000
ASUS43 KOAX 112010
RWRNE

WEATHER ROUNDUP FOR NEBRASKA
NATIONAL WEATHER SERVICE OMAHA NE
300 PM CDT FRI JUL 11 2014

NOTES: SATELLITE DATA IS BEING USED TO AUGMENT CLOUD COVER ABOVE
       12000 FEET.
       "FAIR" INDICATES FEW OR NO CLOUDS BELOW 12,000 FEET WITH NO
       SIGNIFICANT WEATHER AND/OR OBSTRUCTIONS TO VISIBILITY.

  * THESE STATIONS DO NOT REPORT WEATHER SUCH AS RAIN...SNOW OR FOG.

NEZ001>004-019>022-054>056-112100-
NEBRASKA PANHANDLE

CITY           SKY/WX    TMP DP  RH WIND       PRES   REMARKS
SCOTTSBLUFF    MOSUNNY   88  58  36 E8        30.05F
ALLIANCE       PTSUNNY   83  62  49 CALM      30.06F
CHADRON        MOSUNNY   89  61  38 NE8       30.01S
KIMBALL        SUNNY     85  58  39 E12       30.09F
SIDNEY         MOSUNNY   90  62  39 NE9G17    30.07F HX  90
$$

NEZ057>060-069>072-079>082-112100-
SOUTHWEST NEBRASKA

CITY           SKY/WX    TMP DP  RH WIND       PRES   REMARKS
NORTH PLATTE   PTSUNNY   87  66  49 E6        29.99F
IMPERIAL       SUNNY     89  66  46 E9        30.00F HX  91
LEXINGTON      PTSUNNY   82  73  74 NE8       29.99S
MCCOOK         SUNNY     94  63  35 E8        29.96F HX  95
OGALLALA       MOSUNNY   83  67  57 E8        30.03S
$$

NEZ005>010-023>029-035>040-094-112100-
NORTH CENTRAL NEBRASKA

CITY           SKY/WX    TMP DP  RH WIND       PRES   REMARKS
VALENTINE      CLOUDY    85  65  51 NE8       30.00F
AINSWORTH      CLOUDY    82  67  60 E3        30.01S
BROKEN BOW     MOSUNNY   88  69  53 MISG      29.99F HX  92
O`NEILL        CLOUDY    81  70  68 CALM      30.00R
ORD            PTSUNNY   82  72  71 SW6       29.98R
THEDFORD       PTSUNNY   85  63  47 CALM      30.03R
$$

NEZ041-046>049-061>064-073>077-083>087-112100-
SOUTH CENTRAL NEBRASKA

CITY           SKY/WX    TMP DP  RH WIND       PRES   REMARKS
GRAND ISLAND   CLOUDY    83  71  67 S8        29.98S
AURORA         PTSUNNY   83  74  75 S7        29.97F
HASTINGS       PTSUNNY   87  68  52 S7        29.97F HX  90
HEBRON         SUNNY     91  68  46 S9        29.97S HX  95
HOLDREGE       PTSUNNY   90  66  44 S12       29.97F HX  92
KEARNEY *      CLOUDY    84  72  65 SW6       29.99R
YORK           PTSUNNY   84  75  74 S10       29.98R HX  92
$$

NEZ011>018-030>034-042>045-112100-
NORTHEAST NEBRASKA

CITY           SKY/WX    TMP DP  RH WIND       PRES   REMARKS
NORFOLK        CLOUDY    77  70  79 S3        29.98F
ALBION         CLOUDY    78  70  76 S6        29.99S
BLAIR          CLOUDY    77  69  76 S9        29.98S
FREMONT        CLOUDY    81  72  74 S7        29.97F
TEKAMAH        CLOUDY    78  70  76 S9        29.97R
WAYNE          CLOUDY    80  74  80 SW5       29.99S
$$

NEZ050>053-065>068-078-088>093-112100-
SOUTHEAST NEBRASKA

CITY           SKY/WX    TMP DP  RH WIND       PRES   REMARKS
LINCOLN        CLOUDY    85  72  65 S9        29.97S HX  91
OMAHA EPPLEY   CLOUDY    79  70  74 SE10      29.97S
BEATRICE       PTSUNNY   86  69  56 S14G22    29.97S HX  90
FALLS CITY     CLOUDY    87  73  62 S10       29.97F HX  94
NEBRASKA CITY  CLOUDY    82  70  66 S13       29.98F
PLATTSMOUTH    CLOUDY    82  72  71 SE7       29.98S
$$

NEZ044-045-051>053-067-112100-
OMAHA AREA

CITY           SKY/WX    TMP DP  RH WIND       PRES   REMARKS
OMAHA EPPLEY   CLOUDY    79  70  74 SE10      29.97S
BLAIR          CLOUDY    77  69  76 S9        29.98S
FREMONT        CLOUDY    81  72  74 S7        29.97F
MILLARD        CLOUDY    81  72  75 SE7       29.96F
OFFUTT AFB     CLOUDY    81  75  83 SE8       29.97S
PLATTSMOUTH    CLOUDY    82  72  71 SE7       29.98S
WAHOO          FAIR      81  71  70 SE8       29.97F
$$


USA.gov is the U.S. government's official web portal to all federal, state and local government web resources and services.